Wayne, NE

4:59 PM CDT on May 26, 2018 (GMT -0500)
Wayne Municipal

Weather History for KLCG - December, 2012

Change the Weather History Date:

Sunday, December 9, 2012

  Actual Average (KOFK) Record (KOFK)
Temperature  
Mean Temperature 22 °F -  
Max Temperature 37 °F 36 °F 67 °F (1993)
Min Temperature 7 °F 16 °F -18 °F (1909)
Degree Days  
Heating Degree Days 43    
Moisture  
Dew Point 14 °F    
Average Humidity 76    
Maximum Humidity 90    
Minimum Humidity 67    
Precipitation  
Precipitation 0.00 in - - ()
Sea Level Pressure  
Sea Level Pressure 29.97 in    
Wind  
Wind Speed 18 mph (WNW)    
Max Wind Speed 32 mph    
Max Gust Speed 41 mph    
Visibility 9 miles    
Events Snow    
Averages and records for this station are not official NWS values.
T = Trace of Precipitation, MM = Missing Value Source: NWS Daily Summary

Daily Weather History Graph

Daily Weather History Graph

Search for Another Location

Airport or City:

Astronomy

Dec. 09, 2012 Rise Set
Actual Time 7:45 AM CST 4:55 PM CST
Civil Twilight 7:13 AM CST 5:27 PM CST
Nautical Twilight 6:38 AM CST 6:02 PM CST
Astronomical Twilight 6:04 AM CST 6:36 PM CST
Moon 3:16 AM CST (12/9) 2:06 PM CST (12/9)
Length of Visible Light 10h 13m
Length of Day
9h 10m
Waning Crescent, 18% of the Moon is Illuminated
Dec 9
Waning Crescent
Dec 13
New
Dec 19
First Quarter
Dec 28
Full
Jan 4
Last Quarter

Hourly Weather History & Observations

Time (CST) Temp. Windchill Dew Point Humidity Pressure Visibility Wind Dir Wind Speed Gust Speed Precip Events Conditions
12:15 AM 34.7 °F 26.4 °F 30.6 °F 85% 29.82 in 10.0 mi South 11.5 mph - N/A   Overcast
12:35 AM 34.7 °F 25.9 °F 30.9 °F 86% 29.82 in 10.0 mi South 12.7 mph - N/A   Overcast
12:55 AM 34.7 °F 25.5 °F 31.1 °F 87% 29.81 in 10.0 mi South 13.8 mph 17.3 mph N/A   Overcast
1:15 AM 34.7 °F 26.4 °F 31.1 °F 87% 29.81 in 10.0 mi South 11.5 mph 17.3 mph N/A   Mostly Cloudy
1:35 AM 34.2 °F 26.8 °F 31.1 °F 89% 29.81 in 7.0 mi SSW 9.2 mph - N/A   Overcast
1:55 AM 34.2 °F 26.2 °F 31.1 °F 89% 29.81 in 7.0 mi South 10.4 mph - N/A   Overcast
2:15 AM 34.2 °F 27.5 °F 31.6 °F 90% 29.82 in 7.0 mi SSW 8.1 mph - N/A   Overcast
2:35 AM 34.7 °F 30.6 °F 32.0 °F 90% 29.79 in 7.0 mi SSW 4.6 mph - N/A   Overcast
2:55 AM 34.9 °F 29.0 °F 32.0 °F 89% 29.79 in 7.0 mi SSW 6.9 mph - N/A   Overcast
3:15 AM 36.5 °F 31.0 °F 32.9 °F 87% 29.79 in 7.0 mi WSW 6.9 mph - N/A   Overcast
3:35 AM 37.4 °F 31.4 °F 32.9 °F 84% 29.79 in 7.0 mi WSW 8.1 mph - N/A   Overcast
3:55 AM 36.1 °F 26.9 °F 30.4 °F 80% 29.79 in 10.0 mi West 15.0 mph 21.9 mph N/A   Overcast
4:15 AM 33.8 °F 23.9 °F 28.4 °F 81% 29.80 in 10.0 mi West 15.0 mph 20.7 mph N/A   Overcast
4:35 AM 32.9 °F 23.7 °F 28.6 °F 84% 29.81 in 10.0 mi WNW 12.7 mph 19.6 mph N/A   Overcast
4:55 AM 32.9 °F 24.1 °F 28.4 °F 84% 29.82 in 10.0 mi NW 11.5 mph 17.3 mph N/A   Overcast
5:15 AM 32.4 °F 22.1 °F 27.9 °F 83% 29.82 in 10.0 mi WNW 15.0 mph 20.7 mph N/A   Overcast
5:35 AM 31.1 °F 18.9 °F 25.3 °F 79% 29.84 in 10.0 mi WNW 19.6 mph 25.3 mph N/A   Overcast
5:55 AM 28.9 °F 17.7 °F 23.0 °F 78% 29.84 in 10.0 mi WNW 15.0 mph 21.9 mph N/A   Mostly Cloudy
6:15 AM 27.1 °F 13.8 °F 21.0 °F 78% 29.86 in 10.0 mi West 19.6 mph 24.2 mph N/A   Scattered Clouds
6:35 AM 24.1 °F 8.3 °F 17.6 °F 76% 29.88 in 10.0 mi West 24.2 mph 29.9 mph N/A   Mostly Cloudy
6:55 AM 22.1 °F 6.4 °F 15.4 °F 76% 29.88 in 10.0 mi West 21.9 mph 29.9 mph N/A   Scattered Clouds
7:15 AM 21.4 °F 7.1 °F 14.9 °F 76% 29.89 in 10.0 mi West 17.3 mph 27.6 mph N/A   Mostly Cloudy
7:35 AM 21.4 °F 7.1 °F 14.9 °F 76% 29.90 in 10.0 mi West 17.3 mph 27.6 mph N/A   Scattered Clouds
7:55 AM 21.2 °F 6.0 °F 15.4 °F 78% 29.91 in 10.0 mi WNW 19.6 mph 26.5 mph N/A   Scattered Clouds
8:15 AM 22.1 °F 8.0 °F 16.7 °F 80% 29.91 in 10.0 mi WNW 17.3 mph 25.3 mph N/A   Mostly Cloudy
8:35 AM 22.1 °F 7.2 °F 16.5 °F 79% 29.92 in 10.0 mi WNW 19.6 mph 32.2 mph N/A   Overcast
8:55 AM 22.1 °F 6.4 °F 15.8 °F 77% 29.93 in 10.0 mi NW 21.9 mph 32.2 mph N/A   Overcast
9:35 AM 22.1 °F 3.9 °F 14.2 °F 72% 29.94 in 10.0 mi WNW 31.1 mph 39.1 mph N/A   Scattered Clouds
9:55 AM 21.4 °F 4.4 °F 13.3 °F 71% 29.94 in 10.0 mi NW 25.3 mph 35.7 mph N/A   Overcast
10:35 AM 20.3 °F 1.5 °F 12.0 °F 70% 29.96 in 10.0 mi WNW 31.1 mph 39.1 mph N/A   Overcast
10:55 AM 20.7 °F 2.5 °F 11.5 °F 68% 29.96 in 10.0 mi WNW 28.8 mph 36.8 mph N/A   Overcast
11:15 AM 19.9 °F 2.5 °F 11.3 °F 69% 29.97 in 10.0 mi NW 25.3 mph 35.7 mph N/A   Overcast
11:35 AM 19.6 °F 1.7 °F 10.9 °F 69% 29.96 in 10.0 mi NW 26.5 mph 35.7 mph N/A   Overcast
11:55 AM 19.0 °F 0.6 °F 10.4 °F 69% 29.97 in 10.0 mi NW 27.6 mph 36.8 mph N/A   Overcast
12:15 PM 19.2 °F 2.2 °F 10.4 °F 69% 29.96 in 10.0 mi NW 23.0 mph 39.1 mph N/A   Overcast
12:35 PM 18.3 °F -0.6 °F 9.7 °F 69% 29.96 in 7.0 mi NW 28.8 mph 36.8 mph N/A   Overcast
12:55 PM 18.1 °F -0.3 °F 9.3 °F 68% 29.97 in 10.0 mi NW 26.5 mph 36.8 mph N/A   Overcast
1:15 PM 17.6 °F -1.0 °F 9.0 °F 69% 29.98 in 10.0 mi NW 26.5 mph 41.4 mph N/A   Overcast
1:35 PM 17.1 °F -3.2 °F 7.7 °F 67% 29.99 in 10.0 mi NW 32.2 mph 40.3 mph N/A   Overcast
1:55 PM 17.1 °F -2.7 °F 8.6 °F 69% 29.98 in 10.0 mi NW 29.9 mph 41.4 mph N/A   Overcast
2:15 PM 16.3 °F -2.3 °F 7.7 °F 69% 29.98 in 10.0 mi NW 25.3 mph 40.3 mph N/A   Overcast
2:35 PM 15.8 °F -4.1 °F 7.5 °F 70% 29.98 in 10.0 mi NW 28.8 mph 40.3 mph N/A   Overcast
2:55 PM 15.6 °F -4.3 °F 7.9 °F 72% 30.00 in 10.0 mi NW 28.8 mph 38.0 mph N/A   Overcast
3:15 PM 15.3 °F -4.8 °F 7.5 °F 71% 30.00 in 7.0 mi NW 28.8 mph 40.3 mph N/A   Overcast
3:35 PM 15.3 °F -4.8 °F 8.2 °F 74% 30.02 in 7.0 mi NW 28.8 mph 35.7 mph N/A   Overcast
3:55 PM 14.7 °F -4.9 °F 8.2 °F 75% 30.02 in 4.0 mi NW 26.5 mph 38.0 mph N/A Snow Light Snow
4:15 PM 14.4 °F -5.0 °F 8.1 °F 76% 30.05 in 5.0 mi NNW 25.3 mph 36.8 mph N/A   Haze
4:35 PM 14.4 °F -4.6 °F 8.6 °F 78% 30.05 in 5.0 mi NW 24.2 mph 33.4 mph N/A   Haze
4:55 PM 14.4 °F -5.3 °F 8.8 °F 79% 30.06 in 4.0 mi NW 26.5 mph 36.8 mph N/A Snow Light Snow
5:15 PM 13.3 °F -7.1 °F 7.5 °F 78% 30.06 in 4.0 mi NW 27.6 mph 36.8 mph N/A Snow Light Snow
5:35 PM 13.1 °F -7.4 °F 7.2 °F 77% 30.07 in 7.0 mi NNW 27.6 mph 41.4 mph N/A   Overcast
5:55 PM 13.5 °F -6.2 °F 7.0 °F 75% 30.09 in 7.0 mi NW 25.3 mph 38.0 mph N/A   Overcast
6:15 PM 13.1 °F -7.7 °F 7.3 °F 78% 30.10 in 5.0 mi NW 28.8 mph 39.1 mph N/A Snow Light Snow
6:35 PM 12.4 °F -8.3 °F 6.8 °F 78% 30.10 in 7.0 mi NW 27.6 mph 36.8 mph N/A   Overcast
6:55 PM 12.2 °F -8.9 °F 5.5 °F 75% 30.11 in 7.0 mi NW 28.8 mph 36.8 mph N/A Snow Light Snow
7:15 PM 12.0 °F -8.5 °F 5.4 °F 75% 30.11 in 10.0 mi NNW 26.5 mph 35.7 mph N/A   Overcast
7:35 PM 12.2 °F -6.7 °F 5.2 °F 73% 30.12 in 10.0 mi NW 21.9 mph 36.8 mph N/A   Overcast
7:55 PM 12.2 °F -6.3 °F 4.6 °F 72% 30.13 in 10.0 mi NNW 20.7 mph 35.7 mph N/A   Overcast
8:15 PM 12.2 °F -7.1 °F 4.5 °F 71% 30.14 in 10.0 mi NNW 23.0 mph 34.5 mph N/A   Overcast
8:35 PM 12.0 °F -6.5 °F 3.9 °F 70% 30.15 in 10.0 mi NNW 20.7 mph 31.1 mph N/A   Overcast
8:55 PM 12.0 °F -7.7 °F 3.6 °F 69% 30.15 in 10.0 mi NNW 24.2 mph 33.4 mph N/A   Overcast
9:15 PM 12.2 °F -6.3 °F 3.6 °F 68% 30.15 in 10.0 mi NNW 20.7 mph 35.7 mph N/A   Overcast
9:35 PM 12.0 °F -7.3 °F 3.2 °F 68% 30.15 in 10.0 mi NNW 23.0 mph 35.7 mph N/A   Overcast
9:55 PM 11.7 °F -7.4 °F 3.2 °F 69% 30.15 in 10.0 mi NNW 21.9 mph 32.2 mph N/A   Overcast
10:15 PM 11.1 °F -6.7 °F 2.8 °F 69% 30.15 in 10.0 mi NW 18.4 mph 26.5 mph N/A   Overcast
10:35 PM 10.8 °F -6.7 °F 2.3 °F 69% 30.15 in 10.0 mi NNW 17.3 mph 26.5 mph N/A   Overcast
10:55 PM 9.9 °F -4.0 °F 2.1 °F 71% 30.15 in 10.0 mi NNW 10.4 mph 21.9 mph N/A   Overcast
11:15 PM 8.6 °F -7.0 °F 1.8 °F 74% 30.15 in 10.0 mi NNW 12.7 mph 17.3 mph N/A   Mostly Cloudy
11:35 PM 7.9 °F -8.6 °F 1.4 °F 75% 30.14 in 10.0 mi NW 13.8 mph 18.4 mph N/A   Scattered Clouds
11:55 PM 7.5 °F -9.1 °F 1.4 °F 76% 30.14 in 10.0 mi NW 13.8 mph - N/A   Clear